Location: Passau
(48.5830°N, 13.4830°E)
Time: 05:37:14
(UTC+02:00)

Courier 1B Rocket - Pass Details

Date: 04 August 2021
Orbit: 920 x 1202 km, 28.3° (Epoch: 22 September)

Event Time Altitude Azimuth Distance (km) Brightness Sun altitude
Exits shadow 04:06:50 11° 187° (S) 2,617 6.8 -13.6°
Drops below altitude 10° 04:08:39 10° 170° (S) 2,686 7.0 -13.4°
Sets 04:13:29 0° 137° (SE) 3,581 7.9 -12.9°
